This is the latest recevied weather packets stored in our database for station/object KO4DYK. If no packets are shown the sender has not sent any weather packets the latest 1 day(s).
| Time | Temp. | Humidity | Pressure | Rain* | Wind** | Luminosity | Snow |
|---|---|---|---|---|---|---|---|
| 1778054345 | 14.44° C | 99% | 1012.7 hPa | 1.78 mm | 2.24 m/s, 9° | 0 W/m² | - |
| 1778054042 | 15.56° C | 99% | 1012 hPa | 0 mm | 1.34 m/s, 30° | 0 W/m² | - |
| 1778053739 | 15.56° C | 99% | 1012.2 hPa | 0 mm | 1.34 m/s, 32° | 0 W/m² | - |
| 1778053436 | 16.11° C | 99% | 1012 hPa | 0 mm | 1.34 m/s, 71° | 0 W/m² | - |
| 1778053133 | 16.67° C | 99% | 1012.1 hPa | 0 mm | 0.45 m/s, 65° | 0 W/m² | - |
| 1778052831 | 17.22° C | 99% | 1012 hPa | 1.27 mm | 0.45 m/s, 161° | 0 W/m² | - |
| 1778052527 | 18.33° C | 99% | 1011.7 hPa | 4.83 mm | 1.79 m/s, 39° | 0 W/m² | - |
| 1778052225 | 18.89° C | 99% | 1011.9 hPa | 11.94 mm | 0.89 m/s, 191° | 0 W/m² | - |
| 1778051923 | 18.89° C | 99% | 1011.4 hPa | 11.94 mm | 0.89 m/s, 119° | 0 W/m² | - |
| 1778051621 | 19.44° C | 99% | 1011.4 hPa | 29.46 mm | 0 m/s | 0 W/m² | - |
| 1778051317 | 19.44° C | 99% | 1011.7 hPa | 89.41 mm | 0.45 m/s, 147° | 0 W/m² | - |
| 1778051014 | 20° C | 99% | 1011.1 hPa | 67.31 mm | 2.24 m/s, 50° | 0 W/m² | - |
| 1778050712 | 21.67° C | 91% | 1011.9 hPa | 1.78 mm | 1.34 m/s, 35° | 0 W/m² | - |
| 1778050409 | 21.67° C | 91% | 1011.1 hPa | 0 mm | 1.79 m/s, 165° | 0 W/m² | - |
| 1778050106 | 21.67° C | 91% | 1011 hPa | 0 mm | 2.24 m/s, 216° | 0 W/m² | - |
| 1778049801 | 21.67° C | 91% | 1010.5 hPa | 0 mm | 2.68 m/s, 185° | 0 W/m² | - |
| 1778049499 | 21.67° C | 91% | 1010.8 hPa | 0 mm | 2.24 m/s, 164° | 0 W/m² | - |
| 1778049196 | 21.67° C | 91% | 1010.8 hPa | 0 mm | 2.24 m/s, 264° | 0 W/m² | - |
| 1778048895 | 21.67° C | 91% | 1010.7 hPa | 0 mm | 2.68 m/s, 203° | 0 W/m² | - |
| 1778048592 | 21.67° C | 91% | 1010.9 hPa | 0 mm | 1.34 m/s, 168° | 0 W/m² | - |
| 1778048287 | 21.67° C | 91% | 1011.3 hPa | 0 mm | 1.34 m/s, 203° | 0 W/m² | - |
| 1778047984 | 21.67° C | 91% | 1011 hPa | 0 mm | 1.34 m/s, 186° | 0 W/m² | - |
| 1778047683 | 21.11° C | 91% | 1010.8 hPa | 0 mm | 1.34 m/s, 163° | 0 W/m² | - |
| 1778047380 | 21.11° C | 92% | 1010.9 hPa | 0 mm | 2.24 m/s, 186° | 0 W/m² | - |
| 1778047076 | 21.11° C | 92% | 1010.7 hPa | 0 mm | 1.79 m/s, 186° | 0 W/m² | - |
* Rain latest hour (hover to see other rain measurements)
** Current wind speed in m/s (hover to see current wind gust speed)